Observations for Trim Patrick St
| Time | AQI | Temp °C | Hum % | Pres Pa | CO μg/m³ | H₂S μg/m³ | NO μg/m³ | NO₂ μg/m³ | O₃ μg/m³ | SO₂ μg/m³ | PM1 μg/m³ | PM2.5 μg/m³ | PM10 μg/m³ |
|---|---|---|---|---|---|---|---|---|---|---|---|---|---|
| Sunday 2 August 2026 | |||||||||||||
| 07:10 | 2 | 14.8 | 74 | 38,460 | 0.34 | 0 | 1.9 | 15.62 | 19.07 | 0 | 6.29 | 12.04 | 13.25 |
| 07:09 | 2 | 14.7 | 74 | 38,460 | 0.36 | 0 | 1.8 | 14.86 | 20.34 | 0 | 6.29 | 10.6 | 11.66 |
| 07:08 | 2 | 14.7 | 74 | 38,460 | 0.35 | 0 | 1.8 | 13.63 | 20.61 | 0 | 6.29 | 13.44 | 14.79 |
| 07:07 | 2 | 14.6 | 74 | 38,460 | 0.36 | 0 | 2.05 | 19.37 | 16.98 | 0 | 6.29 | 12.71 | 13.98 |
| 07:06 | 2 | 14.6 | 74 | 38,460 | 0.35 | 0 | 2.14 | 16.85 | 16.53 | 0 | 6.29 | 11.99 | 13.19 |
| 07:05 | 2 | 14.6 | 74 | 38,460 | 0.35 | 0 | 2.03 | 18.46 | 19.54 | 0 | 7.14 | 13.41 | 14.75 |
| 07:04 | 2 | 14.5 | 75 | 38,460 | 0.36 | 0 | 2.11 | 17.81 | 18.69 | 0 | 6.29 | 13.39 | 14.73 |
| 07:03 | 2 | 14.5 | 75 | 38,460 | 0.36 | 0 | 2.03 | 18.93 | 20.19 | 0 | 7.14 | 11.96 | 13.16 |
| 07:02 | 2 | 14.5 | 75 | 38,460 | 0.36 | 0 | 2.02 | 18.62 | 18.73 | 0 | 7.14 | 11.95 | 13.15 |
| 07:01 | 2 | 14.4 | 75 | 38,460 | 0.36 | 0 | 2.05 | 19.39 | 21.93 | 0 | 4.57 | 11.93 | 13.13 |
| 07:00 | 2 | 14.4 | 75 | 38,460 | 0.36 | 0 | 2.33 | 19.73 | 18.25 | 0 | 6.29 | 11.22 | 12.34 |
| 06:59 | 2 | 14.3 | 75 | 38,460 | 0.37 | 0 | 2.12 | 19.83 | 18.64 | 0 | 6.29 | 11.2 | 12.32 |
| 06:58 | 2 | 14.3 | 76 | 38,460 | 0.36 | 0 | 2.19 | 20.43 | 20.21 | 0 | 6.29 | 10.48 | 11.53 |
| 06:57 | 2 | 14.3 | 76 | 38,460 | 0.36 | 0 | 2.15 | 21.52 | 20.32 | 0 | 8 | 13.31 | 14.64 |
| 06:56 | 2 | 14.2 | 76 | 38,460 | 0.37 | 0.05 | 2.23 | 21.6 | 21.22 | 0 | 6.29 | 10.47 | 11.51 |
| 06:55 | 2 | 14.2 | 76 | 38,460 | 0.37 | 0.54 | 2.04 | 21.93 | 20.25 | 0 | 6.29 | 11.16 | 12.27 |
| 06:54 | 2 | 14.2 | 76 | 38,460 | 0.36 | 0.62 | 2.04 | 22.19 | 20.69 | 0 | 8 | 11.87 | 13.05 |
| 06:53 | 2 | 14.1 | 76 | 38,460 | 0.37 | 0.91 | 2.13 | 22.54 | 24.46 | 0 | 7.14 | 11.86 | 13.04 |
| 06:52 | 2 | 14.1 | 76 | 38,460 | 0.37 | 0.57 | 2.21 | 22.85 | 20.72 | 0 | 7.14 | 12.55 | 13.8 |
| 06:51 | 2 | 14 | 76 | 38,460 | 0.37 | 0.83 | 2.35 | 22.94 | 22.48 | 0 | 6.29 | 11.13 | 12.24 |